RH
30 28 29 20 20 18 22 22 21 19 27 29 26 24 20 18 17 17 18 17 16 16 18 21 23 32 38 42 42 50 68 92 86 70 68 64 53 53 51 45 42 41 37 34
34 32 21 21 24 27 26 25 24 21 27 31 24 25 21 18 17 17 17 16 16 16 18 20 24 25 26 20 19 28 55 80 57 53 56 64 56 57 55 49 45 43 38 36
26 24 29 29 28 29 26 26 22 26 28 28 32 26 19 16 18 17 17 18 18 18 19 21 24 27 28 22 20 21 35 60 56 53 67 71 65 57 54 46 45 43 40 40
24 24 29 31 29 27 30 22 26 30 34 38 26 34 17 14 16 16 16 17 17 20 21 25 26 30 31 29 23 22 29 49 49 57 66 64 58 53 51 50 50 48 46 44
32 37 37 34 27 26 29 32 32 36 39 40 32 46 18 17 17 15 14 20 22 23 26 27 31 32 35 39 28 23 27 41 45 50 57 70 69 64 71 65 53 52 49 48
30 38 34 30 36 32 35 35 38 45 46 70 29 31 21 17 19 19 16 19 24 25 26 27 31 32 38 44 41 28 28 33 40 41 51 72 74 67 67 58 56 55 53 54
35 41 36 36 40 38 35 36 72 82 89 56 36 34 24 19 18 23 24 26 27 27 28 30 34 38 40 49 40 31 33 47 46 45 54 75 79 70 66 62 59 59 58 59
56 86 44 35 31 36 39 34 62 97 56 36 40 43 24 20 21 25 29 31 33 33 33 34 36 40 42 43 30 29 27 32 40 46 48 71 83 77 73 68 61 60 61 63
36 42 44 38 35 32 41 52 34 44 30 42 25 22 20 22 28 33 36 38 41 42 41 40 28 34 40 45 34 28 27 26 30 33 43 62 79 82 76 69 64 62 64 61
27 41 48 45 39 38 40 32 48 47 80 40 19 19 26 31 36 37 43 48 53 55 55 52 48 40 28 27 26 25 26 27 30 34 33 52 74 81 78 72 67 63 63 56
28 30 55 46 49 42 46 43 42 41 46 70 26 18 30 40 46 45 50 56 55 58 60 60 57 54 49 40 27 25 24 24 25 29 29 35 69 82 80 74 72 71 67 56
33 31 35 40 43 40 35 33 32 45 38 44 36 33 31 46 47 49 49 52 52 54 56 56 57 59 58 56 56 52 36 30 31 31 32 32 55 84 81 76 74 68 64 53
38 41 43 49 49 45 48 41 37 30 29 35 49 34 42 46 46 47 51 52 50 50 52 55 56 56 56 62 59 56 62 60 46 44 48 50 60 83 80 77 77 73 62 54
70 46 34 32 30 36 50 45 41 40 48 41 35 30 39 53 46 42 54 53 51 50 52 55 57 58 58 52 53 58 45 64 60 53 51 67 78 82 81 78 78 74 58 68
70 80 49 40 34 45 51 45 44 50 46 51 40 34 67 57 41 38 52 53 52 54 55 59 61 61 52 41 40 48 53 52 66 68 67 77 83 84 85 85 79 66 65 70
81 98 92 84 59 62 66 57 56 55 51 51 48 48 59 48 37 36 47 54 55 54 55 58 64 68 58 49 50 42 49 64 64 74 82 81 81 83 81 75 70 74 78 81
99 100 98 83 66 81 91 70 60 54 59 89 94 90 44 37 35 42 46 57 54 56 58 61 68 72 72 63 60 58 42 53 68 68 72 72 70 64 67 71 77 83 84 85
100 100 97 95 95 95 81 67 59 66 77 65 54 43 35 36 48 51 50 59 61 60 61 67 74 65 49 49 60 63 59 50 60 70 70 72 71 75 84 95 98 100 100 99
98 100 96 95 92 92 88 74 74 75 84 54 49 33 32 45 47 38 56 63 61 64 70 78 78 65 54 43 50 62 66 74 88 72 75 77 82 94 99 98 98 99 100 94
73 93 96 95 93 92 75 54 59 67 87 68 37 32 40 45 39 22 47 55 60 66 75 77 72 67 67 64 57 62 76 79 100 100 86 87 97 100 93 94 100 100 100 100
88 92 90 92 93 92 66 56 63 76 81 50 38 37 44 44 40 48 55 58 63 69 68 69 73 79 81 68 72 81 93 100 96 100 100 94 88 89 97 99 100 100 99 97
62 72 74 79 82 81 64 57 64 45 34 32 35 39 46 56 59 60 60 64 67 67 67 67 68 70 69 76 84 86 78 94 99 99 100 100 94 98 100 98 99 99 100 100
65 50 50 50 56 63 66 43 41 32 30 36 38 43 60 71 66 63 65 68 66 66 65 65 67 65 54 69 82 93 66 71 89 99 99 100 100 95 91 100 100 99 100 99
52 55 59 60 52 56 62 48 38 39 42 64 72 79 73 67 67 68 66 65 63 62 66 69 71 69 60 58 62 78 86 91 98 98 99 100 100 100 100 100 100 100 99 100
48 52 50 51 44 48 51 45 34 51 62 64 67 70 72 73 70 66 64 63 66 74 79 84 83 81 75 66 60 60 63 96 99 99 100 99 99 99 100 100 100 100 100 99
46 44 48 45 32 36 36 48 51 55 62 67 72 71 71 68 67 67 68 71 75 84 89 90 92 87 71 71 67 62 73 92 100 100 100 99 99 99 100 100 100 100 100 96
Wind_Speed
5 6 10 11 12 11 6 9 12 7 3 4 12 17 17 17 18 20 22 23 23 25 22 23 26 28 27 25 24 24 24 22 24 25 23 20 19 20 19 18 16 14 12 10
4 10 13 1 3 7 9 12 14 11 2 4 11 16 20 19 18 24 25 23 23 22 20 23 26 27 30 30 30 29 28 27 29 28 25 22 19 20 20 19 17 16 13 11
12 2 5 5 7 10 12 14 12 9 5 10 10 14 15 8 9 15 19 17 14 13 14 16 25 28 29 32 31 30 28 29 28 28 26 25 20 21 21 22 20 18 15 13
11 2 6 6 9 9 11 5 8 6 5 5 4 8 13 10 9 8 12 14 9 7 12 15 17 22 28 30 29 27 26 28 28 28 30 28 24 22 21 21 20 19 18 16
4 6 8 11 9 8 2 2 2 2 5 7 7 5 3 1 5 9 5 13 12 11 6 6 11 14 20 23 28 26 25 27 28 30 30 27 24 20 16 19 19 21 20 17
6 1 4 1 5 2 13 7 4 2 1 5 8 10 8 4 8 10 5 11 9 11 9 5 4 8 12 18 23 24 23 26 28 30 30 30 28 24 23 21 21 22 20 18
10 10 4 8 8 6 10 8 3 2 2 5 3 6 13 14 12 11 11 14 12 11 10 8 6 2 7 14 18 19 20 22 25 27 29 30 30 28 25 23 23 22 21 19
8 5 13 12 9 8 15 10 4 6 4 1 3 6 4 3 7 13 15 18 18 17 16 13 8 2 4 10 14 16 18 20 22 24 27 29 31 29 28 25 24 23 22 19
7 5 2 1 1 1 7 7 1 3 7 4 6 9 7 9 14 17 19 21 22 23 23 22 19 9 4 7 11 15 17 19 21 23 26 29 32 32 31 27 25 23 22 20
1 3 1 3 2 1 3 3 3 3 4 7 7 10 6 11 10 11 14 18 18 20 21 22 24 25 16 8 12 15 17 20 21 24 26 29 31 33 32 28 27 25 22 19
5 5 5 4 9 10 5 5 5 2 3 3 6 4 6 11 9 9 13 17 18 18 20 20 20 21 20 19 16 17 20 22 25 27 27 28 31 33 32 30 27 24 22 20
9 3 9 7 2 3 10 12 15 6 7 6 7 6 10 10 11 14 14 17 17 18 19 19 22 19 18 17 18 19 22 26 27 27 27 29 31 34 32 28 25 24 22 19
9 7 5 6 2 3 6 10 10 15 11 19 11 3 9 11 12 15 16 18 19 19 20 20 19 19 18 18 18 17 21 24 26 26 25 27 30 32 31 28 27 26 22 18
1 5 11 11 2 2 4 9 12 15 11 14 17 17 16 12 13 16 16 17 19 21 22 22 22 22 23 25 25 27 23 21 24 25 25 26 27 29 28 27 27 25 20 14
2 6 10 14 14 9 10 12 10 14 17 15 15 17 8 9 10 13 11 16 20 24 27 28 29 30 31 31 31 28 27 21 21 23 23 24 24 25 26 25 25 22 21 19
3 1 1 5 9 9 13 16 16 18 17 20 21 19 6 7 10 12 10 12 16 19 21 23 25 26 31 32 31 30 26 23 18 19 21 21 20 22 23 24 25 23 21 19
1 2 3 17 8 4 9 14 19 19 6 4 8 4 5 6 9 11 12 8 13 17 20 22 23 25 28 33 35 32 26 22 21 20 22 22 23 25 27 28 28 24 19 16
3 1 2 2 4 7 4 5 3 6 9 9 8 5 4 6 9 14 8 3 15 19 21 23 24 30 33 35 35 35 32 23 26 22 22 21 21 24 26 22 15 13 13 13
1 1 2 3 5 2 3 4 4 2 6 5 4 2 4 5 11 2 5 9 16 18 19 20 24 30 32 32 34 35 35 29 24 31 30 28 26 26 19 16 13 13 18 20
5 3 2 3 3 3 4 5 4 4 5 12 3 3 4 6 4 3 14 17 18 19 20 22 26 28 29 30 30 32 32 31 25 26 28 31 30 28 23 19 21 21 25 24
3 3 7 5 2 1 7 6 7 3 4 8 3 4 6 6 9 15 17 19 19 20 23 24 24 22 23 28 28 29 28 28 26 21 18 19 18 20 20 21 21 24 23 23
6 3 3 2 2 6 14 6 4 5 4 1 4 7 10 12 15 17 19 21 21 22 23 22 24 25 27 25 25 27 30 28 30 29 24 25 23 22 22 21 24 23 21 20
3 4 1 4 1 3 21 1 4 1 3 4 8 9 10 13 16 18 19 18 19 19 20 21 23 28 31 28 24 28 33 30 32 31 35 28 27 25 24 24 23 23 22 20
2 1 2 2 6 10 14 6 4 5 3 3 5 7 9 13 14 15 16 18 20 20 22 22 24 26 31 31 30 28 31 31 27 29 32 21 18 24 24 23 24 24 23 22
3 4 2 6 7 6 11 8 6 5 4 6 7 7 8 11 13 15 16 18 18 20 21 22 24 26 29 31 31 31 33 28 27 28 28 23 19 20 21 22 21 20 19 19
6 7 7 10 10 10 6 8 6 6 9 9 9 9 9 12 14 14 16 16 18 21 22 23 24 27 31 31 33 32 30 27 25 27 26 22 19 19 22 20 19 18 15 14
Wind_Direction
189 215 218 222 224 276 282 280 274 274 129 275 251 266 273 272 268 259 256 254 249 244 238 228 223 218 217 214 210 209 207 208 213 217 221 227 230 229 230 231 234 235 238 244
183 235 240 225 254 225 244 262 266 272 204 255 284 282 279 266 256 247 250 251 255 252 240 230 223 217 222 223 222 216 210 209 217 222 225 226 229 231 230 232 233 233 237 242
230 78 92 190 208 220 233 246 263 259 308 241 292 272 260 230 247 252 255 258 259 260 255 239 226 219 220 225 223 222 217 217 218 220 220 221 219 225 226 231 231 231 233 235
250 169 187 193 221 217 257 274 257 266 275 280 342 292 285 254 229 237 254 259 278 305 271 245 229 226 222 226 226 224 221 221 221 218 223 227 232 232 235 235 234 234 234 236
196 179 196 223 240 205 218 80 192 240 258 313 223 266 281 122 271 269 334 67 39 6 337 247 233 227 224 220 223 222 220 219 221 221 226 227 227 230 231 226 230 232 232 235
274 78 212 142 104 171 136 131 111 86 227 252 242 207 278 292 39 336 64 49 20 1 11 358 267 243 216 215 222 220 220 220 222 224 224 224 225 224 228 230 232 233 234 235
204 216 151 162 131 150 191 174 189 222 194 240 12 211 253 299 334 19 3 1 5 17 19 9 356 312 202 214 220 220 221 223 224 229 228 226 226 228 233 232 232 233 235 235
187 234 188 184 224 183 195 201 200 206 206 166 154 225 242 334 11 53 59 50 40 30 22 18 9 343 214 234 230 233 236 236 237 236 236 232 231 229 233 233 235 234 234 235
209 181 84 271 285 232 164 209 323 277 271 269 230 247 275 79 74 70 57 48 41 36 29 25 25 7 290 257 249 249 253 251 246 245 240 235 233 231 233 234 238 236 234 235
255 189 254 109 211 235 276 118 154 202 219 243 228 232 226 98 83 64 52 44 28 21 19 18 19 18 6 300 277 272 269 266 261 254 249 244 239 235 235 236 237 235 234 235
251 242 127 164 207 190 178 206 226 297 215 249 273 260 52 94 63 50 34 20 14 8 7 5 5 360 355 351 326 295 280 273 268 263 257 248 240 236 233 232 233 234 231 234
201 276 226 199 98 303 254 233 217 230 217 219 279 255 99 75 53 31 16 6 5 7 3 1 0 353 349 340 322 309 296 279 269 261 256 249 239 235 231 232 234 232 232 236
163 206 220 180 213 200 230 218 250 238 273 256 251 228 119 52 32 21 11 5 5 3 4 3 0 357 352 345 330 309 297 291 280 267 259 250 239 235 231 228 229 228 226 233
138 243 212 234 270 51 200 225 222 233 240 258 247 264 200 27 16 9 9 5 1 2 2 358 355 351 350 348 340 336 320 290 281 269 261 253 244 238 235 229 225 222 216 223
284 249 252 259 268 275 252 253 229 232 241 251 268 268 45 19 16 9 8 5 4 0 356 353 348 343 341 340 343 333 328 307 291 274 262 253 245 237 231 227 220 212 217 229
355 232 7 255 243 237 254 251 249 249 248 258 269 269 39 14 7 4 3 5 2 352 344 340 337 337 338 337 332 333 325 320 294 276 264 255 249 242 234 224 217 225 233 240
118 162 167 262 267 302 270 242 245 250 284 7 261 29 29 7 344 339 331 330 349 341 336 333 330 328 328 329 335 326 318 304 298 274 259 247 240 236 228 222 226 231 228 221
137 146 136 296 119 221 59 18 247 99 104 105 103 84 17 328 312 309 306 308 336 333 330 326 326 328 332 330 329 329 321 303 276 269 251 240 244 239 227 225 228 238 229 234
260 77 204 238 219 83 175 174 136 151 159 135 106 1 341 329 314 41 109 333 327 321 319 316 318 323 325 329 326 324 324 313 293 263 257 257 259 256 234 251 244 232 241 239
181 263 260 181 242 243 91 131 131 123 199 195 187 305 304 317 296 326 336 324 319 319 316 315 317 321 323 324 325 319 321 317 304 288 263 259 260 245 241 248 245 244 240 235
174 193 231 236 259 225 154 149 149 203 120 171 246 288 287 281 292 302 310 312 313 313 314 316 315 314 316 321 324 317 315 314 305 287 268 245 240 235 241 239 235 234 232 231
196 205 200 211 253 256 161 130 212 96 123 195 295 295 288 289 298 303 308 310 312 314 316 317 315 313 316 320 319 315 314 310 304 295 272 240 233 238 231 226 230 230 227 226
229 234 261 217 35 122 169 65 183 249 249 273 285 287 283 288 295 301 304 306 307 309 311 314 313 313 314 315 314 311 314 309 297 302 294 264 236 229 226 225 227 226 224 221
217 155 258 5 166 166 181 193 222 209 260 279 273 272 283 290 299 303 308 311 313 316 318 320 319 315 314 316 312 304 308 311 303 299 294 252 233 225 219 216 221 220 223 217
22 130 297 260 257 209 211 238 223 215 292 299 293 293 295 299 302 306 309 313 314 316 319 319 316 312 310 314 311 309 310 308 303 298 281 245 243 234 222 210 209 211 212 212
207 246 235 256 283 243 279 166 226 279 299 294 296 299 300 303 306 310 312 314 315 316 318 318 316 314 317 316 314 314 313 307 303 291 268 242 221 205 211 206 200 207 216 215